[keps] orb07214.amsat

Ray Hoad r.hoad at att.net
Thu Aug 2 20:08:04 PDT 2007


SB KEPS @ AMSAT  $ORB07214.O
Orbital Elements  07214.OSCAR

HR AMSAT ORBITAL ELEMENTS FOR OSCAR SATELLITES
FROM WA5QGD FORT WORTH,TX August 2, 2007
Send Subscribe/unsubscribe to KEPS at 
http://www.amsat.org/mailman/listinfo/keps
BID: ORB07214.O
TO ALL RADIO AMATEURS BT

Satellite: AO-07
Catalog number: 07530
Epoch time:      07214.50908191
Element set:     940
Inclination:      101.5113 deg
RA of node:       251.1489 deg
Eccentricity:    0.0011908
Arg of perigee:   164.2977 deg
Mean anomaly:     195.8468 deg
Mean motion:   12.53572420 rev/day
Decay rate:       -2.8e-07 rev/day^2
Epoch rev:           49692
Checksum:              303

Satellite: AO-10
Catalog number: 14129
Epoch time:      07213.22754333
Element set:    0406
Inclination:      026.2918 deg
RA of node:       263.9637 deg
Eccentricity:    0.6066300
Arg of perigee:   043.7153 deg
Mean anomaly:     350.8790 deg
Mean motion:   02.05867990 rev/day
Decay rate:        9.9e-07 rev/day^2
Epoch rev:           18149
Checksum:              308

Satellite: UO-11
Catalog number: 14781
Epoch time:      07213.97499812
Element set:    0435
Inclination:      098.1882 deg
RA of node:       237.5539 deg
Eccentricity:    0.0009731
Arg of perigee:   030.6217 deg
Mean anomaly:     329.5574 deg
Mean motion:   14.79570537 rev/day
Decay rate:       2.58e-06 rev/day^2
Epoch rev:           25650
Checksum:              332

Satellite: RS-15
Catalog number: 23439
Epoch time:      07214.72336854
Element set:      49
Inclination:      064.8204 deg
RA of node:       291.6635 deg
Eccentricity:    0.0158301
Arg of perigee:   182.3960 deg
Mean anomaly:     177.6220 deg
Mean motion:   11.27552233 rev/day
Decay rate:       -3.9e-07 rev/day^2
Epoch rev:           51894
Checksum:              302

Satellite: FO-29
Catalog number: 24278
Epoch time:      07213.90619636
Element set:     556
Inclination:      098.5548 deg
RA of node:       167.4172 deg
Eccentricity:    0.0350784
Arg of perigee:   325.0301 deg
Mean anomaly:     032.8242 deg
Mean motion:   13.52930962 rev/day
Decay rate:       -6.6e-07 rev/day^2
Epoch rev:           54108
Checksum:              314

Satellite: SO-33
Catalog number: 25509
Epoch time:      07213.63117821
Element set:     985
Inclination:      031.4306 deg
RA of node:       328.8101 deg
Eccentricity:    0.0355109
Arg of perigee:   104.7922 deg
Mean anomaly:     259.2399 deg
Mean motion:   14.28170991 rev/day
Decay rate:       2.85e-06 rev/day^2
Epoch rev:           45775
Checksum:              313

Satellite: AO-40
Catalog number: 26609
Epoch time:      07212.92691794
Element set:    0913
Inclination:      006.0787 deg
RA of node:       129.3990 deg
Eccentricity:    0.7974061
Arg of perigee:   347.5058 deg
Mean anomaly:     000.9676 deg
Mean motion:   01.25588399 rev/day
Decay rate:      -2.23e-06 rev/day^2
Epoch rev:           03100
Checksum:              326

Satellite: VO-52
Catalog number: 28650
Epoch time:      07213.36631847
Element set:    0692
Inclination:      097.8294 deg
RA of node:       283.0690 deg
Eccentricity:    0.0028488
Arg of perigee:   106.0361 deg
Mean anomaly:     254.4003 deg
Mean motion:   14.81343362 rev/day
Decay rate:       3.80e-06 rev/day^2
Epoch rev:           12110
Checksum:              289

Satellite: PO-63
Catalog number: 29712
Epoch time:      07214.63216389
Element set:     600
Inclination:      097.9196 deg
RA of node:       273.1433 deg
Eccentricity:    0.0013942
Arg of perigee:   344.9175 deg
Mean anomaly:     015.1615 deg
Mean motion:   14.79778494 rev/day
Decay rate:       4.25e-06 rev/day^2
Epoch rev:            3020
Checksum:              309

/EX
SB KEPS @ AMSAT  $ORB07214.D
Orbital Elements  07214.MICROS

HR AMSAT ORBITAL ELEMENTS FOR THE MICROSATS
FROM WA5QGD FORT WORTH,TX August 2, 2007
Send Subscribe/unsubscribe to KEPS at 
http://www.amsat.org/mailman/listinfo/keps
BID: ORB07214.D
TO ALL RADIO AMATEURS BT

Satellite: AO-16
Catalog number: 20439
Epoch time:      07213.51541238
Element set:    0095
Inclination:      098.1976 deg
RA of node:       205.5771 deg
Eccentricity:    0.0011985
Arg of perigee:   053.6603 deg
Mean anomaly:     306.5695 deg
Mean motion:   14.31766606 rev/day
Decay rate:        1.8e-07 rev/day^2
Epoch rev:           91503
Checksum:              307

Satellite: LO-19
Catalog number: 20442
Epoch time:      07213.96551546
Element set:    0023
Inclination:      098.1799 deg
RA of node:       215.2893 deg
Eccentricity:    0.0012952
Arg of perigee:   051.0397 deg
Mean anomaly:     309.1958 deg
Mean motion:   14.32006483 rev/day
Decay rate:       -7.3e-07 rev/day^2
Epoch rev:           91524
Checksum:              307

Satellite: AO-27
Catalog number: 22825
Epoch time:      07214.47393222
Element set:     744
Inclination:      098.3341 deg
RA of node:       182.3457 deg
Eccentricity:    0.0009065
Arg of perigee:   120.6724 deg
Mean anomaly:     239.5354 deg
Mean motion:   14.29213459 rev/day
Decay rate:      -1.41e-06 rev/day^2
Epoch rev:           72210
Checksum:              289

Satellite: IO-26
Catalog number: 22826
Epoch time:      07213.81332012
Element set:    0443
Inclination:      098.3268 deg
RA of node:       182.7639 deg
Eccentricity:    0.0009495
Arg of perigee:   118.8921 deg
Mean anomaly:     241.3211 deg
Mean motion:   14.29460692 rev/day
Decay rate:        2.0e-08 rev/day^2
Epoch rev:           72209
Checksum:              292

Satellite: PO-28
Catalog number: 22829
Epoch time:      07213.46715350
Element set:    0720
Inclination:      098.3157 deg
RA of node:       183.5934 deg
Eccentricity:    0.0010722
Arg of perigee:   096.7772 deg
Mean anomaly:     263.4650 deg
Mean motion:   14.30161220 rev/day
Decay rate:       -7.5e-07 rev/day^2
Epoch rev:           72228
Checksum:              293

Satellite: GO-32
Catalog number: 25397
Epoch time:      07213.78992825
Element set:    0365
Inclination:      098.4107 deg
RA of node:       259.0006 deg
Eccentricity:    0.0002201
Arg of perigee:   096.0604 deg
Mean anomaly:     264.0820 deg
Mean motion:   14.23129442 rev/day
Decay rate:        9.5e-07 rev/day^2
Epoch rev:           47064
Checksum:              289

Satellite: MO-46
Catalog number: 26548
Epoch time:      07213.89975236
Element set:    0861
Inclination:      064.5569 deg
RA of node:       041.2461 deg
Eccentricity:    0.0009877
Arg of perigee:   190.0460 deg
Mean anomaly:     170.0424 deg
Mean motion:   14.83162571 rev/day
Decay rate:       -5.4e-07 rev/day^2
Epoch rev:           37032
Checksum:              308

Satellite: NO-44
Catalog number: 26931
Epoch time:      07213.77609812
Element set:     648
Inclination:      067.0529 deg
RA of node:       030.0535 deg
Eccentricity:    0.0007337
Arg of perigee:   261.6047 deg
Mean anomaly:     098.4183 deg
Mean motion:   14.29492563 rev/day
Decay rate:       1.34e-06 rev/day^2
Epoch rev:           30461
Checksum:              301

Satellite: SO-50
Catalog number: 27607
Epoch time:      07213.73248100
Element set:     372
Inclination:      064.5590 deg
RA of node:       306.7500 deg
Eccentricity:    0.0059598
Arg of perigee:   347.7717 deg
Mean anomaly:     012.1935 deg
Mean motion:   14.71275194 rev/day
Decay rate:       -9.4e-07 rev/day^2
Epoch rev:           24782
Checksum:              309

Satellite: CO-55
Catalog number: 27844
Epoch time:      07213.74714877
Element set:      86
Inclination:      098.7183 deg
RA of node:       221.4242 deg
Eccentricity:    0.0009612
Arg of perigee:   326.7186 deg
Mean anomaly:     033.3382 deg
Mean motion:   14.20524345 rev/day
Decay rate:        5.6e-07 rev/day^2
Epoch rev:           21194
Checksum:              302

Satellite: CO-57
Catalog number: 27848
Epoch time:      07213.56221949
Element set:      45
Inclination:      098.7180 deg
RA of node:       220.4214 deg
Eccentricity:    0.0009744
Arg of perigee:   330.4050 deg
Mean anomaly:     029.6588 deg
Mean motion:   14.20341672 rev/day
Decay rate:        2.0e-07 rev/day^2
Epoch rev:           21189
Checksum:              290

Satellite: AO-51
Catalog number: 28375
Epoch time:      07213.57671524
Element set:    0877
Inclination:      098.1092 deg
RA of node:       250.5491 deg
Eccentricity:    0.0085308
Arg of perigee:   045.0078 deg
Mean anomaly:     315.7990 deg
Mean motion:   14.40575570 rev/day
Decay rate:        2.0e-08 rev/day^2
Epoch rev:           16225
Checksum:              308

Satellite: CO-56
Catalog number: 28941
Epoch time:      07214.69910309
Element set:     518
Inclination:      098.1263 deg
RA of node:       281.0196 deg
Eccentricity:    0.0220970
Arg of perigee:   108.1796 deg
Mean anomaly:     254.3624 deg
Mean motion:   15.41583898 rev/day
Decay rate:     2.5525e-04 rev/day^2
Epoch rev:            8059
Checksum:              335

Satellite: HO-59
Catalog number: 29484
Epoch time:      07214.70353032
Element set:     555
Inclination:      098.2820 deg
RA of node:       271.6386 deg
Eccentricity:    0.0197068
Arg of perigee:   098.9828 deg
Mean anomaly:     263.3703 deg
Mean motion:   15.54527767 rev/day
Decay rate:     4.7917e-04 rev/day^2
Epoch rev:            4829
Checksum:              362

Satellite: NO-60
Catalog number: 29661
Epoch time:      07150.05824307
Element set:     300
Inclination:      051.6186 deg
RA of node:       176.5045 deg
Eccentricity:    0.0007204
Arg of perigee:   190.7749 deg
Mean anomaly:     188.7342 deg
Mean motion:   16.52052832 rev/day
Decay rate:  1.3324117e-01 rev/day^2
Epoch rev:            2554
Checksum:              290

Satellite: NO-61
Catalog number: 29664
Epoch time:      07214.40513097
Element set:     350
Inclination:      051.6275 deg
RA of node:       208.2690 deg
Eccentricity:    0.0010523
Arg of perigee:   154.8958 deg
Mean anomaly:     205.2638 deg
Mean motion:   15.94613943 rev/day
Decay rate:     3.5580e-04 rev/day^2
Epoch rev:            3552
Checksum:              304

